Change the Weather History Date:

Wednesday, March 20, 2013

  Actual Average Record
Temperature  
Mean Temperature 38 °F 45 °F  
Max Temperature 53 °F 59 °F 87 °F (1975)
Min Temperature 22 °F 30 °F 11 °F (1983)
Degree Days  
Heating Degree Days 27 20  
Month to date heating degree days 384 459  
Since 1 July heating degree days 4285 4483  
Cooling Degree Days 0 0  
Month to date cooling degree days 0 0  
Year to date cooling degree days 0 0  
Moisture  
Dew Point 19 °F    
Average Humidity 53    
Maximum Humidity 77    
Minimum Humidity 28    
Precipitation  
Precipitation 0.00 in 0.05 in 0.45 in (2006)
Month to date precipitation 0.06 0.82  
Year to date precipitation 0.40 1.70  
Sea Level Pressure  
Sea Level Pressure 30.20 in    
Wind  
Wind Speed 15 mph (ESE)    
Max Wind Speed 24 mph    
Max Gust Speed 30 mph    
Visibility 10 miles    
Events      
T = Trace of Precipitation, MM = Missing Value Source: NWS Daily Summary

Daily Weather History Graph

Daily Weather History Graph

Search for Another Location

Airport or City:

Trip Planner

Search our weather history database for the weather conditions in past years. The results will help you decide how hot, cold, wet, or windy it might be!

Date:

Astronomy

Mar. 20, 2013 Rise Set
Actual Time 7:45 AM CDT 7:55 PM CDT
Civil Twilight 7:19 AM CDT 8:21 PM CDT
Nautical Twilight 6:49 AM CDT 8:52 PM CDT
Astronomical Twilight 6:18 AM CDT 9:23 PM CDT
Moon 1:37 PM CDT (3/20) 3:21 AM CDT (3/20)
Length of Visible Light 13h 01m
Length of Day
12h 09m
First Quarter, 59% of the Moon is Illuminated
Mar 20
First Quarter
Mar 27
Full
Apr 2
Last Quarter
Apr 10
New
Apr 18
First Quarter

Hourly Weather History & Observations

Time (CDT) Temp. Windchill Dew Point Humidity Pressure Visibility Wind Dir Wind Speed Gust Speed Precip Events Conditions
12:54 AM 28.9 °F 17.3 °F 12.0 °F 49% 30.33 in 10.0 mi North 16.1 mph 19.6 mph N/A   Clear
1:54 AM 27.0 °F 18.7 °F 14.0 °F 58% 30.34 in 10.0 mi NNE 8.1 mph - N/A   Clear
2:54 AM 26.1 °F 18.4 °F 16.0 °F 66% 30.34 in 10.0 mi Variable 6.9 mph - N/A   Clear
3:54 AM 26.1 °F 16.2 °F 17.1 °F 69% 30.35 in 10.0 mi North 10.4 mph - N/A   Clear
4:54 AM 25.0 °F 13.6 °F 17.1 °F 72% 30.34 in 10.0 mi North 12.7 mph - N/A   Clear
5:54 AM 25.0 °F 13.6 °F 18.0 °F 75% 30.35 in 10.0 mi NNE 12.7 mph - N/A   Clear
6:54 AM 24.1 °F 12.0 °F 17.1 °F 75% 30.39 in 10.0 mi NE 13.8 mph - N/A   Clear
7:54 AM 21.9 °F 9.8 °F 16.0 °F 78% 30.40 in 10.0 mi NE 12.7 mph - N/A   Clear
8:54 AM 26.1 °F 14.0 °F 18.0 °F 71% 30.40 in 10.0 mi East 15.0 mph - N/A   Clear
9:54 AM 30.9 °F 20.2 °F 14.0 °F 50% 30.39 in 10.0 mi East 15.0 mph - N/A   Clear
10:54 AM 35.1 °F 26.4 °F 10.0 °F 35% 30.38 in 10.0 mi East 12.7 mph - N/A   Clear
11:54 AM 39.0 °F 31.8 °F 12.9 °F 34% 30.35 in 10.0 mi SE 11.5 mph - N/A   Clear
12:54 PM 43.0 °F 36.8 °F 16.0 °F 34% 30.31 in 10.0 mi SSE 11.5 mph 20.7 mph N/A   Clear
1:54 PM 46.9 °F - 17.1 °F 30% 30.24 in 10.0 mi SSE 15.0 mph 21.9 mph N/A   Clear
2:54 PM 51.1 °F - 19.0 °F 28% 30.17 in 10.0 mi South 13.8 mph 25.3 mph N/A   Clear
3:54 PM 51.1 °F - 21.0 °F 31% 30.11 in 10.0 mi South 17.3 mph - N/A   Clear
4:54 PM 52.0 °F - 21.9 °F 31% 30.06 in 10.0 mi South 19.6 mph 28.8 mph N/A   Clear
5:54 PM 52.0 °F - 21.9 °F 31% 30.02 in 10.0 mi SSE 16.1 mph 26.5 mph N/A   Clear
6:54 PM 50.0 °F - 23.0 °F 35% 29.98 in 10.0 mi SE 23.0 mph 27.6 mph N/A   Clear
7:54 PM 46.9 °F - 24.1 °F 41% 29.96 in 10.0 mi SE 18.4 mph - N/A   Clear
8:54 PM 43.0 °F 34.5 °F 25.0 °F 49% 29.94 in 10.0 mi SE 19.6 mph - N/A   Clear
9:54 PM 42.1 °F 32.8 °F 26.1 °F 53% 29.91 in 10.0 mi SE 21.9 mph - N/A   Clear
10:54 PM 39.0 °F 29.6 °F 25.0 °F 57% 29.88 in 10.0 mi SE 18.4 mph - N/A   Clear
11:54 PM 39.0 °F 29.3 °F 26.1 °F 60% 29.84 in 10.0 mi SE 19.6 mph - N/A   Clear